Location: Carbonear
(47.7333°N, 53.2500°W)
Time: 07:04:23
(UTC+00:00)

Oscar 11 - Pass Details

Date: 02 December 2022
Orbit: 611 x 621 km, 97.6° (Epoch: 28 January)

Event Time Altitude Azimuth Distance (km) Brightness Sun altitude
Rises 09:15:54 0° 3° (N) 2,891 10.4 -17.1°
Reaches altitude 10° 09:18:21 10° 351° (N) 1,980 9.4 -16.7°
Enters shadow 09:20:29 22° 326° (NW) 1,360 8.4 -16.4°
